[[{"header":{"parameterUnit":"m.s-1","parameterCategory":2,"la1":30.2991,"la2":30.254,"lo1":-89.0895,"lo2":-89.0444,"dy":0.0017,"dx":0.0017,"nx":28,"ny":28,"refTime":"2023-06-28T21:00:00:Z","depth":"0","parameterNumber":2,"parameterNumberName":"U-component_of_CURRENTS"},"data":[0,0,0,0,0,0,0,0,0,0,0,0,0,0,0,0,0,0,0,0,0,0,0,0,0,0,0,0,0,0,0,0,0,0,0,0,0,0,0,0,0,0,0,0,0,0,0,0,0,0,0,0,0,0,0,0,0,0,-0.133,-0.1331,0,-0.1481,-0.1484,-0.1486,-0.1679,-0.1681,-0.1683,-0.1685,-0.1953,-0.1958,-0.1963,0,0,0,0,0,0,0,0,0,0,0,0,0,-0.124,-0.1241,-0.133,-0.1331,-0.1332,-0.1481,-0.1484,-0.1487,-0.1678,-0.1681,-0.1684,-0.1686,-0.1952,-0.1958,-0.1964,0,0,0,0,0,0,0,0,0,0,0,0,0,-0.1333,-0.1241,-0.133,-0.1438,-0.1449,-0.148,-0.1484,-0.1488,-0.1678,-0.1681,-0.1684,-0.1687,-0.195,-0.1957,-0.1965,-0.1946,0,0,-0.1988,-0.1991,0,0,0,0,0,0,0,0,-0.1327,-0.1337,-0.1421,-0.1431,-0.1442,-0.1556,-0.155,-0.1643,-0.1677,-0.1601,-0.1685,-0.1689,-0.1822,-0.1841,-0.1874,-0.1958,-0.197,-0.1989,-0.1993,-0.1997,-0.1999,0,0,0,0,0,0,0,-0.132,-0.1332,-0.14,-0.1422,-0.1435,-0.149,-0.1507,-0.1569,-0.1701,-0.1608,-0.162,-0.162,-0.1831,-0.1866,-0.1882,-0.1974,-0.1988,-0.1995,-0.2,-0.2003,-0.2051,-0.2048,0,0,0,0,0,0,-0.1277,-0.1325,-0.1395,-0.1403,-0.1381,-0.1488,-0.1508,-0.1524,-0.1698,-0.1724,-0.1617,-0.1628,-0.1851,-0.1873,-0.1892,-0.1878,-0.1996,-0.2004,-0.2008,-0.2054,-0.205,-0.2046,0,0,0,0,0,0,-0.1274,-0.1282,-0.1389,-0.1359,-0.1376,-0.1484,-0.1502,-0.1525,-0.1562,-0.1702,-0.1733,-0.1629,-0.1855,-0.1881,-0.1943,-0.189,-0.2007,-0.2014,-0.2058,-0.2053,-0.2048,-0.1851,0,0,0,0,0,0,-0.1272,-0.1281,-0.128,-0.1356,-0.1375,-0.1395,-0.1498,-0.1525,-0.1552,-0.1569,-0.1721,-0.1751,-0.186,-0.1931,-0.195,-0.1903,-0.202,-0.2062,-0.2056,-0.205,-0.1862,-0.184,-0.1822,0,0,0,0,0,-0.1268,-0.1249,-0.128,-0.1288,-0.1371,-0.1392,-0.1407,-0.1503,-0.1548,-0.1551,-0.1655,-0.1746,-0.1905,-0.1935,-0.1959,-0.1912,-0.2065,-0.2057,-0.205,-0.1871,-0.1844,-0.1822,0,0,0,0,0,0,-0.1203,-0.1268,-0.1304,-0.1305,-0.1336,-0.1421,-0.142,-0.1475,-0.1557,-0.1573,-0.172,-0.1754,-0.1785,-0.1862,-0.1891,-0.1902,-0.1992,-0.1989,-0.1847,-0.1823,-0.1803,-0.1797,-0.2026,0,0,0,0,0,-0.1181,-0.1196,-0.1249,-0.1246,-0.1248,-0.1325,-0.1344,-0.1399,-0.1472,-0.1513,-0.1614,-0.1705,-0.1767,-0.1808,-0.1881,-0.1888,-0.1924,-0.1866,-0.1845,-0.1828,-0.1835,-0.1812,-0.179,-0.2022,-0.2022,-0.2022,0,0,-0.1153,-0.1188,-0.1197,-0.1233,-0.1264,-0.127,-0.1348,-0.1352,-0.1376,-0.1523,-0.158,-0.1643,-0.1752,-0.1773,-0.179,-0.1836,-0.1771,-0.1819,-0.1803,-0.182,-0.1801,-0.1779,-0.1759,-0.2017,-0.2018,-0.2019,0,0,-0.1093,-0.1125,-0.1115,-0.1132,-0.1156,-0.1205,-0.1192,-0.1255,-0.1301,-0.1338,-0.1442,-0.1454,-0.1579,-0.1623,-0.1667,-0.1565,-0.1665,-0.1592,-0.1492,-0.1467,-0.1448,-0.1432,-0.141,-0.1394,-0.1581,-0.1581,-0.158,0,-0.1054,-0.1064,-0.1107,-0.1095,-0.1107,-0.1166,-0.1153,-0.1192,-0.1274,-0.1299,-0.1334,-0.1435,-0.1498,-0.1516,-0.1482,-0.1517,-0.1541,-0.1579,-0.144,-0.1426,-0.1413,-0.1395,-0.138,-0.157,-0.1572,-0.1573,-0.1574,0,-0.0996,-0.1001,-0.0979,-0.1008,-0.1021,-0.1006,-0.1057,-0.1078,-0.1124,-0.1173,-0.1187,-0.1243,-0.1311,-0.1297,-0.1371,-0.1306,-0.1363,-0.1415,-0.1502,-0.1377,-0.1366,-0.1354,-0.1556,-0.1559,-0.1562,-0.1565,0,0,-0.0915,-0.0942,-0.0935,-0.0946,-0.0976,-0.0983,-0.0994,-0.1031,-0.1055,-0.1071,-0.1089,-0.1099,-0.1118,-0.1164,-0.1211,-0.117,-0.1057,-0.1251,-0.1255,-0.123,-0.1016,-0.1017,-0.1005,-0.1104,-0.1101,-0.1099,-0.1032,0,-0.0858,-0.0838,-0.087,-0.0856,-0.0849,-0.0907,-0.0926,-0.0964,-0.1008,-0.1038,-0.1031,-0.1063,-0.1074,-0.1088,-0.1037,-0.1098,-0.1024,-0.1072,-0.1144,-0.1146,-0.1161,-0.0989,-0.095,-0.0885,-0.1021,-0.1019,-0.1018,0,-0.0786,-0.0796,-0.0772,-0.0813,-0.0813,-0.0818,-0.0872,-0.0896,-0.0943,-0.0974,-0.0969,-0.1008,-0.0962,-0.0976,-0.0934,-0.0982,-0.0966,-0.0972,-0.0971,-0.1042,-0.1123,-0.104,-0.0859,-0.0808,-0.1,-0.1001,-0.1003,0,-0.0719,-0.0725,-0.0716,-0.0723,-0.0771,-0.0778,-0.0811,-0.0867,-0.0891,-0.0929,-0.0945,-0.0929,-0.0925,-0.0893,-0.0902,-0.0926,-0.0864,-0.0902,-0.0862,-0.0864,-0.0879,-0.0886,-0.0662,-0.0807,-0.0807,-0.0807,-0.0808,0,-0.0647,-0.0635,-0.0685,-0.0676,-0.0679,-0.0728,-0.0738,-0.0785,-0.0829,-0.0844,-0.0894,-0.0901,-0.0906,-0.0895,-0.0881,-0.0839,-0.0835,-0.0808,-0.0828,-0.0805,-0.0806,-0.0811,-0.0875,-0.0805,-0.0805,-0.0806,-0.0806,0,-0.0554,-0.0586,-0.0576,-0.0624,-0.0639,-0.0636,-0.0687,-0.0699,-0.0763,-0.0781,-0.0785,-0.0864,-0.0874,-0.087,-0.0845,-0.0813,-0.0764,-0.0753,-0.0728,-0.0745,-0.0659,-0.0718,-0.0652,-0.0623,-0.0681,-0.068,-0.0679,0,-0.0505,-0.0488,-0.0524,-0.0526,-0.0539,-0.0556,-0.0569,-0.0644,-0.0662,-0.0759,-0.0755,-0.0801,-0.0847,-0.0828,-0.0788,-0.0737,-0.0737,-0.0643,-0.0645,-0.0601,-0.0682,-0.074,-0.0725,-0.0575,-0.0573,-0.0572,-0.0571,0,-0.0411,-0.0418,-0.0419,-0.0424,-0.043,-0.045,-0.0477,-0.0482,-0.0571,-0.0609,-0.0688,-0.0748,-0.0791,-0.0768,-0.072,-0.0682,-0.064,-0.0618,-0.0566,-0.0558,-0.0615,-0.0616,-0.0685,-0.0561,-0.0562,-0.0563,-0.0563,-0.0564,-0.034,-0.0314,-0.0317,-0.031,-0.0336,-0.0345,-0.0326,-0.0369,-0.0395,-0.045,-0.0585,-0.0643,-0.0677,-0.0642,-0.0611,-0.0478,-0.058,-0.0427,-0.0494,-0.0547,-0.0531,-0.0574,-0.0489,-0.049,-0.049,-0.0491,-0.0491,0,-0.0269,-0.0235,-0.0213,-0.0218,-0.0226,-0.0264,-0.027,-0.0244,-0.0249,-0.0318,-0.0409,-0.0442,-0.0425,-0.0405,-0.0283,-0.029,-0.0329,-0.0329,-0.0367,-0.0349,-0.0348,-0.035,-0.0238,-0.0238,-0.0238,-0.0238,-0.0238,-0.0238,-0.0233,-0.0177,-0.0153,-0.0116,-0.0131,-0.0112,-0.01,-0.0073,-0.0081,-0.0083,-0.0105,-0.0195,-0.009,-0.0096,-0.0062,-0.014,-0.0182,-0.0306,-0.031,-0.028,-0.0293,-0.0305,-0.0309,-0.0191,-0.0191,-0.024,-0.0241,-0.0241]},{"header":{"parameterUnit":"m.s-1","parameterCategory":2,"la1":30.2991,"la2":30.254,"lo1":-89.0895,"lo2":-89.0444,"dy":0.0017,"dx":0.0017,"nx":28,"ny":28,"refTime":"2023-06-28T21:00:00:Z","depth":"0","parameterNumber":3,"parameterNumberName":"V-component_of_CURRENTS"},"data":[0,0,0,0,0,0,0,0,0,0,0,0,0,0,0,0,0,0,0,0,0,0,0,0,0,0,0,0,0,0,0,0,0,0,0,0,0,0,0,0,0,0,0,0,0,0,0,0,0,0,0,0,0,0,0,0,0,0,-0.0462,-0.0462,0,-0.0501,-0.0501,-0.0501,-0.0516,-0.0516,-0.0516,-0.0516,-0.0408,-0.0405,-0.0402,0,0,0,0,0,0,0,0,0,0,0,0,0,-0.037,-0.0371,-0.0462,-0.0462,-0.0463,-0.0501,-0.0501,-0.0501,-0.0516,-0.0516,-0.0516,-0.0516,-0.0409,-0.0405,-0.0402,0,0,0,0,0,0,0,0,0,0,0,0,0,-0.0408,-0.0372,-0.0462,-0.0476,-0.0477,-0.0501,-0.0501,-0.0502,-0.0516,-0.0516,-0.0516,-0.0516,-0.041,-0.0406,-0.0401,-0.0375,0,0,-0.0388,-0.0386,0,0,0,0,0,0,0,0,-0.0406,-0.0411,-0.0473,-0.0475,-0.0477,-0.0505,-0.0429,-0.0452,-0.0516,-0.05,-0.0516,-0.0516,-0.0427,-0.0421,-0.0429,-0.037,-0.0365,-0.0388,-0.0385,-0.0383,-0.0382,0,0,0,0,0,0,0,-0.0403,-0.041,-0.0476,-0.0474,-0.0476,-0.047,-0.0475,-0.0434,-0.046,-0.0502,-0.0503,-0.0509,-0.0427,-0.0434,-0.0426,-0.0364,-0.0388,-0.0384,-0.0381,-0.038,-0.0242,-0.0241,0,0,0,0,0,0,-0.0403,-0.0408,-0.0475,-0.0477,-0.0442,-0.0471,-0.0478,-0.0495,-0.0464,-0.046,-0.0509,-0.051,-0.0441,-0.0432,-0.0422,-0.0417,-0.0383,-0.0379,-0.0377,-0.0243,-0.0242,-0.0241,0,0,0,0,0,0,-0.0401,-0.0409,-0.0473,-0.0443,-0.0451,-0.0473,-0.0492,-0.0496,-0.0507,-0.0471,-0.0465,-0.0518,-0.0441,-0.0429,-0.0421,-0.0412,-0.0377,-0.0373,-0.0245,-0.0243,-0.0242,-0.0388,0,0,0,0,0,0,-0.0398,-0.0408,-0.0419,-0.0444,-0.0453,-0.0497,-0.0493,-0.0496,-0.0511,-0.0512,-0.0475,-0.0466,-0.044,-0.0428,-0.0417,-0.0405,-0.037,-0.0246,-0.0244,-0.0242,-0.0384,-0.0392,-0.0398,0,0,0,0,0,-0.0395,-0.0425,-0.0419,-0.0427,-0.0468,-0.0498,-0.0503,-0.0517,-0.0511,-0.0524,-0.0517,-0.0467,-0.0405,-0.0427,-0.0413,-0.0399,-0.0247,-0.0245,-0.0242,-0.0381,-0.039,-0.0397,0,0,0,0,0,0,-0.0404,-0.043,-0.0424,-0.0463,-0.0477,-0.0502,-0.0525,-0.0519,-0.0525,-0.0526,-0.0486,-0.0477,-0.0456,-0.0401,-0.0425,-0.0344,-0.0303,-0.0298,-0.0412,-0.042,-0.0427,-0.0445,-0.0366,0,0,0,0,0,-0.0405,-0.0426,-0.0447,-0.0475,-0.0491,-0.0502,-0.0514,-0.0519,-0.0528,-0.0532,-0.0505,-0.0462,-0.0432,-0.0412,-0.0372,-0.0346,-0.0312,-0.0311,-0.0318,-0.0324,-0.0324,-0.0312,-0.032,-0.0233,-0.0233,-0.0233,0,0,-0.0411,-0.0432,-0.0441,-0.0476,-0.0495,-0.052,-0.0511,-0.054,-0.0553,-0.0514,-0.0524,-0.0491,-0.0431,-0.0415,-0.0394,-0.0372,-0.0327,-0.0321,-0.0328,-0.0324,-0.0311,-0.032,-0.0329,-0.0232,-0.0232,-0.0232,0,0,-0.0447,-0.0463,-0.0493,-0.0507,-0.0535,-0.0541,-0.0548,-0.0566,-0.0574,-0.0578,-0.0551,-0.0535,-0.047,-0.0452,-0.0426,-0.0434,-0.0367,-0.0382,-0.0435,-0.0425,-0.0434,-0.0441,-0.0411,-0.0415,-0.0383,-0.0383,-0.0383,0,-0.0455,-0.0494,-0.0505,-0.0539,-0.0555,-0.0551,-0.0581,-0.0591,-0.0597,-0.0607,-0.0588,-0.0534,-0.0491,-0.0485,-0.049,-0.0454,-0.0427,-0.0428,-0.0441,-0.0447,-0.0452,-0.042,-0.0422,-0.039,-0.0389,-0.0388,-0.0388,0,-0.051,-0.0535,-0.0563,-0.0595,-0.061,-0.064,-0.065,-0.0661,-0.0655,-0.0655,-0.065,-0.0617,-0.0581,-0.0553,-0.053,-0.0527,-0.0489,-0.0466,-0.0442,-0.0472,-0.0433,-0.0433,-0.0399,-0.0397,-0.0395,-0.0393,0,0,-0.0539,-0.0591,-0.0597,-0.0615,-0.064,-0.0663,-0.069,-0.0717,-0.0738,-0.0724,-0.0748,-0.0708,-0.0686,-0.0653,-0.0613,-0.0603,-0.0623,-0.0552,-0.0548,-0.0558,-0.0588,-0.0582,-0.058,-0.0612,-0.0613,-0.0613,-0.055,0,-0.0577,-0.0644,-0.0655,-0.0699,-0.0732,-0.0734,-0.0758,-0.0774,-0.0779,-0.0798,-0.0776,-0.0767,-0.0723,-0.0708,-0.07,-0.0644,-0.0626,-0.064,-0.0523,-0.0519,-0.0543,-0.0582,-0.0505,-0.0444,-0.0549,-0.0549,-0.0549,0,-0.0617,-0.0658,-0.0716,-0.0752,-0.0769,-0.0789,-0.0827,-0.0848,-0.0871,-0.0873,-0.0874,-0.0847,-0.0838,-0.0787,-0.0729,-0.0741,-0.0669,-0.0622,-0.0618,-0.0561,-0.0514,-0.0425,-0.0439,-0.0212,-0.0547,-0.0547,-0.0547,0,-0.0625,-0.069,-0.0738,-0.0752,-0.0798,-0.0824,-0.0845,-0.0872,-0.0895,-0.092,-0.0931,-0.0917,-0.0902,-0.0839,-0.0745,-0.0736,-0.0673,-0.0645,-0.0567,-0.0564,-0.0447,-0.0435,-0.0259,-0.059,-0.0591,-0.0591,-0.0591,0,-0.065,-0.068,-0.0748,-0.0772,-0.0818,-0.0845,-0.0893,-0.0908,-0.0944,-0.0975,-0.0966,-0.0984,-0.0914,-0.087,-0.0776,-0.0682,-0.0694,-0.0584,-0.0558,-0.0493,-0.0486,-0.0239,-0.017,-0.0588,-0.0589,-0.0589,-0.059,0,-0.063,-0.068,-0.073,-0.08,-0.0819,-0.0849,-0.0907,-0.0942,-0.0974,-0.1014,-0.102,-0.1033,-0.0995,-0.0908,-0.0805,-0.072,-0.0519,-0.0574,-0.0498,-0.0466,-0.021,-0.0154,-0.0071,0.0042,-0.0496,-0.0495,-0.0495,0,-0.0624,-0.0655,-0.0735,-0.0761,-0.0789,-0.0845,-0.088,-0.0938,-0.0983,-0.1044,-0.1068,-0.1058,-0.106,-0.0929,-0.0793,-0.0645,-0.0479,-0.0446,-0.0424,-0.0193,-0.011,-0.0128,-0.0038,-0.031,-0.0308,-0.0307,-0.0306,0,-0.0602,-0.0635,-0.0678,-0.0735,-0.0783,-0.0836,-0.0903,-0.0942,-0.1019,-0.1074,-0.1142,-0.1153,-0.1062,-0.0935,-0.0741,-0.0599,-0.0309,-0.0414,-0.0184,0.0031,0.0034,0.0156,-0.0338,-0.0293,-0.0294,-0.0295,-0.0296,-0.0296,-0.0574,-0.0596,-0.0658,-0.0708,-0.0754,-0.0812,-0.0853,-0.0948,-0.1029,-0.1105,-0.1159,-0.1192,-0.1003,-0.0772,-0.0587,-0.014,-0.0242,0.0038,0.0084,0.0041,0.0156,-0.0321,-0.0251,-0.0252,-0.0253,-0.0253,-0.0254,0,-0.0537,-0.0576,-0.0623,-0.0693,-0.0726,-0.0764,-0.0853,-0.0905,-0.1003,-0.1095,-0.1163,-0.1096,-0.0764,-0.0463,0.0075,0.0363,0.0417,0.0534,0.0597,0.0664,0.0271,0.0293,0.0495,0.0495,0.0494,0.0494,0.0494,0.0494,-0.052,-0.0559,-0.0599,-0.0654,-0.0688,-0.0734,-0.0774,-0.0861,-0.0941,-0.104,-0.1091,-0.1109,-0.0603,0.0159,0.0857,0.0955,0.1162,0.1068,0.1172,0.1004,0.0964,0.0926,0.097,0.131,0.1311,0.1589,0.1592,0.1595]}],[{"header":{"parameterUnit":"m.s-1","parameterCategory":2,"la1":30.2991,"la2":30.254,"lo1":-89.0895,"lo2":-89.0444,"dy":0.0017,"dx":0.0017,"nx":28,"ny":28,"refTime":"2023-06-28T21:00:00:Z","depth":"2","parameterNumber":2,"parameterNumberName":"U-component_of_CURRENTS"},"data":[0,0,0,0,0,0,0,0,0,0,0,0,0,0,0,0,0,0,0,0,0,0,0,0,0,0,0,0,0,0,0,0,0,0,0,0,0,0,0,0,0,0,0,0,0,0,0,0,0,0,0,0,0,0,0,0,0,0,-0.2806,-0.2805,0,-0.2767,-0.2766,-0.2766,-0.2765,-0.2766,-0.2766,-0.2767,-0.2792,-0.2793,-0.2793,0,0,0,0,0,0,0,0,0,0,0,0,0,-0.2797,-0.2798,-0.2806,-0.2805,-0.2805,-0.2767,-0.2766,-0.2766,-0.2765,-0.2766,-0.2766,-0.2767,-0.2792,-0.2793,-0.2793,0,0,0,0,0,0,0,0,0,0,0,0,0,-0.2785,-0.2798,-0.2806,-0.2799,-0.2798,-0.2767,-0.2766,-0.2766,-0.2765,-0.2766,-0.2767,-0.2767,-0.2792,-0.2793,-0.2793,-0.2782,0,0,-0.2794,-0.2794,0,0,0,0,0,0,0,0,-0.2786,-0.2785,-0.2801,-0.28,-0.2799,-0.2771,-0.2772,-0.2774,-0.2765,-0.2778,-0.2767,-0.2768,-0.279,-0.2791,-0.2782,-0.2783,-0.2784,-0.2794,-0.2794,-0.2795,-0.2795,0,0,0,0,0,0,0,-0.2787,-0.2786,-0.2791,-0.28,-0.2799,-0.277,-0.277,-0.2772,-0.2783,-0.2777,-0.2777,-0.2772,-0.279,-0.2782,-0.2783,-0.2785,-0.2794,-0.2794,-0.2795,-0.2795,-0.268,-0.2677,0,0,0,0,0,0,-0.2794,-0.2788,-0.2792,-0.279,-0.2793,-0.277,-0.277,-0.278,-0.2781,-0.2782,-0.2771,-0.2772,-0.2781,-0.2782,-0.2784,-0.2678,-0.2795,-0.2795,-0.2795,-0.2684,-0.268,-0.2676,0,0,0,0,0,0,-0.2794,-0.2795,-0.2794,-0.2786,-0.2784,-0.277,-0.2781,-0.2779,-0.2764,-0.2776,-0.2777,-0.2758,-0.2781,-0.2783,-0.2751,-0.2683,-0.2795,-0.2795,-0.2688,-0.2682,-0.2678,-0.2527,0,0,0,0,0,0,-0.2794,-0.2796,-0.2801,-0.2787,-0.2785,-0.2757,-0.278,-0.2777,-0.276,-0.276,-0.2765,-0.2769,-0.2782,-0.2749,-0.2751,-0.2686,-0.2796,-0.2692,-0.2685,-0.268,-0.2536,-0.2518,-0.2502,0,0,0,0,0,-0.2794,-0.279,-0.2802,-0.2802,-0.2794,-0.2756,-0.275,-0.2743,-0.2758,-0.2736,-0.2729,-0.2768,-0.2711,-0.2747,-0.275,-0.2683,-0.2695,-0.2687,-0.268,-0.2544,-0.2521,-0.2502,0,0,0,0,0,0,-0.2799,-0.279,-0.2802,-0.28,-0.2775,-0.2755,-0.2736,-0.2736,-0.2714,-0.2717,-0.2735,-0.2736,-0.2668,-0.2703,-0.2743,-0.263,-0.2706,-0.2699,-0.2601,-0.258,-0.2564,-0.2577,-0.2796,0,0,0,0,0,-0.2802,-0.2791,-0.278,-0.2776,-0.2764,-0.2751,-0.2736,-0.2729,-0.271,-0.2701,-0.2693,-0.2681,-0.2639,-0.2636,-0.2609,-0.2569,-0.2604,-0.2524,-0.2507,-0.2492,-0.2502,-0.2485,-0.2467,-0.2652,-0.2652,-0.2652,0,0,-0.2802,-0.2796,-0.2792,-0.2774,-0.2759,-0.2721,-0.2743,-0.2711,-0.267,-0.2708,-0.2643,-0.2616,-0.2611,-0.2536,-0.2512,-0.2562,-0.2451,-0.2483,-0.247,-0.2489,-0.2475,-0.2458,-0.2442,-0.2647,-0.2648,-0.2649,0,0,-0.2777,-0.2793,-0.2766,-0.2741,-0.271,-0.2695,-0.2683,-0.2647,-0.2621,-0.2559,-0.2552,-0.2488,-0.2455,-0.2414,-0.2398,-0.2279,-0.2347,-0.2269,-0.2209,-0.219,-0.2176,-0.2163,-0.2162,-0.2151,-0.2277,-0.2276,-0.2276,0,-0.2778,-0.2751,-0.2748,-0.271,-0.2682,-0.268,-0.2634,-0.2602,-0.2552,-0.2519,-0.2521,-0.2407,-0.2389,-0.2297,-0.2236,-0.2238,-0.2258,-0.2287,-0.2169,-0.2158,-0.2148,-0.215,-0.214,-0.2268,-0.2269,-0.227,-0.2271,0,-0.2721,-0.2701,-0.2679,-0.2633,-0.2601,-0.256,-0.2521,-0.2477,-0.2446,-0.2411,-0.2302,-0.2255,-0.22,-0.2154,-0.2157,-0.2059,-0.2103,-0.2136,-0.2227,-0.2121,-0.2129,-0.2121,-0.2256,-0.2259,-0.2262,-0.2264,0,0,-0.271,-0.2652,-0.2643,-0.2612,-0.2557,-0.2523,-0.2452,-0.2382,-0.2345,-0.226,-0.2194,-0.2064,-0.205,-0.2029,-0.2007,-0.1977,-0.1888,-0.2024,-0.2027,-0.2032,-0.1863,-0.1779,-0.1764,-0.191,-0.1908,-0.1906,-0.189,0,-0.2662,-0.259,-0.2564,-0.2486,-0.2444,-0.2416,-0.2354,-0.2294,-0.2246,-0.2181,-0.2106,-0.2029,-0.2002,-0.1965,-0.1918,-0.1908,-0.1865,-0.1892,-0.196,-0.1962,-0.1907,-0.175,-0.1614,-0.1578,-0.1883,-0.1882,-0.1881,0,-0.2599,-0.2563,-0.2486,-0.2418,-0.2397,-0.2345,-0.2267,-0.221,-0.2134,-0.2097,-0.2018,-0.1986,-0.1891,-0.1899,-0.1823,-0.1849,-0.1834,-0.1829,-0.1829,-0.1806,-0.1862,-0.1737,-0.1554,-0.1869,-0.187,-0.1871,-0.1872,0,-0.2574,-0.2499,-0.244,-0.2414,-0.2342,-0.2292,-0.2245,-0.2174,-0.2129,-0.2049,-0.2022,-0.1928,-0.1885,-0.1845,-0.1796,-0.1821,-0.1743,-0.1789,-0.1696,-0.1693,-0.1618,-0.161,-0.1727,-0.1727,-0.1727,-0.1727,-0.1727,0,-0.252,-0.247,-0.2426,-0.2388,-0.231,-0.2269,-0.2185,-0.2136,-0.2082,-0.2032,-0.1978,-0.1942,-0.1871,-0.1819,-0.1789,-0.1697,-0.1733,-0.165,-0.166,-0.1557,-0.1543,-0.1848,-0.1862,-0.1726,-0.1726,-0.1726,-0.1727,0,-0.2481,-0.2459,-0.2383,-0.2314,-0.2289,-0.2227,-0.2147,-0.2101,-0.2064,-0.2008,-0.1981,-0.1939,-0.1873,-0.1798,-0.1739,-0.1677,-0.1614,-0.1576,-0.1456,-0.1448,-0.1591,-0.1598,-0.1481,-0.1478,-0.1475,-0.1472,-0.147,0,-0.2446,-0.2408,-0.2331,-0.2292,-0.225,-0.2173,-0.2124,-0.2075,-0.2044,-0.2012,-0.1992,-0.1924,-0.1853,-0.1719,-0.1576,-0.1459,-0.1546,-0.1286,-0.1279,-0.1532,-0.1555,-0.1567,-0.1577,-0.1128,-0.1124,-0.112,-0.1117,0,-0.2373,-0.2352,-0.23,-0.2217,-0.2157,-0.2102,-0.204,-0.2025,-0.1989,-0.196,-0.1941,-0.1892,-0.1739,-0.1541,-0.1352,-0.127,-0.1286,-0.1203,-0.1475,-0.1204,-0.1195,-0.122,-0.1242,-0.1082,-0.1085,-0.1088,-0.109,-0.1091,-0.2315,-0.2257,-0.219,-0.21,-0.2054,-0.2008,-0.1945,-0.193,-0.1878,-0.1757,-0.1807,-0.1618,-0.153,-0.1144,-0.1062,-0.0955,-0.1063,-0.1001,-0.1015,-0.1033,-0.0987,-0.0971,-0.081,-0.0812,-0.0813,-0.0815,-0.0816,0,-0.2203,-0.214,-0.2071,-0.1962,-0.1896,-0.1896,-0.1864,-0.1788,-0.1715,-0.1567,-0.146,-0.1134,-0.0974,-0.0907,-0.0707,-0.0662,-0.0656,-0.0622,-0.0653,-0.0686,-0.0716,-0.0656,-0.039,-0.0389,-0.0388,-0.0387,0,0,-0.2135,-0.2026,-0.1976,-0.1816,-0.1755,-0.1644,-0.1617,-0.1531,-0.1414,-0.1143,-0.0936,-0.0799,-0.0835,-0.0585,-0.055,-0.0478,-0.0567,-0.0411,-0.0746,-0.0814,-0.0844,-0.0918,-0.0859,0,0,0,0,0]},{"header":{"parameterUnit":"m.s-1","parameterCategory":2,"la1":30.2991,"la2":30.254,"lo1":-89.0895,"lo2":-89.0444,"dy":0.0017,"dx":0.0017,"nx":28,"ny":28,"refTime":"2023-06-28T21:00:00:Z","depth":"2","parameterNumber":3,"parameterNumberName":"V-component_of_CURRENTS"},"data":[0,0,0,0,0,0,0,0,0,0,0,0,0,0,0,0,0,0,0,0,0,0,0,0,0,0,0,0,0,0,0,0,0,0,0,0,0,0,0,0,0,0,0,0,0,0,0,0,0,0,0,0,0,0,0,0,0,0,0.0118,0.0121,0,0.0379,0.0382,0.0385,0.0537,0.0537,0.0538,0.0538,0.0918,0.0928,0.0937,0,0,0,0,0,0,0,0,0,0,0,0,0,-0.0224,-0.0218,0.0118,0.0121,0.0124,0.0378,0.0382,0.0386,0.0537,0.0537,0.0538,0.0539,0.0915,0.0927,0.0938,0,0,0,0,0,0,0,0,0,0,0,0,0,-0.003,-0.0217,0.0117,0.023,0.0243,0.0378,0.0382,0.0387,0.0536,0.0537,0.0538,0.0539,0.0912,0.0926,0.094,0.1012,0,0,0.0984,0.099,0,0,0,0,0,0,0,0,-0.0042,-0.0018,0.021,0.0222,0.0237,0.0426,0.0401,0.0601,0.0536,0.0425,0.0538,0.0539,0.0764,0.079,0.0837,0.1029,0.1046,0.0985,0.0994,0.1,0.1004,0,0,0,0,0,0,0,-0.0055,-0.0028,0.0222,0.0213,0.023,0.0276,0.0304,0.0439,0.0589,0.0435,0.0447,0.0475,0.0772,0.0822,0.0847,0.1051,0.0985,0.0997,0.1006,0.1012,0.1322,0.1322,0,0,0,0,0,0,-0.0089,-0.004,0.0213,0.0229,0.0096,0.0281,0.0313,0.0365,0.0586,0.0619,0.0474,0.0481,0.0797,0.083,0.0861,0.0972,0.1,0.1013,0.1022,0.1323,0.1322,0.1322,0,0,0,0,0,0,-0.0097,-0.0068,0.0203,0.0098,0.0136,0.0286,0.0343,0.0369,0.0417,0.0613,0.0649,0.0494,0.0799,0.0841,0.096,0.0988,0.102,0.1033,0.1323,0.1322,0.1322,0.1187,0,0,0,0,0,0,-0.0108,-0.0072,-0.0048,0.0097,0.0141,0.0277,0.0343,0.0374,0.0433,0.0445,0.0643,0.0679,0.0803,0.0938,0.0974,0.1008,0.1044,0.1324,0.1323,0.1322,0.1192,0.1181,0.1173,0,0,0,0,0,-0.0121,-0.0089,-0.0048,-0.0018,0.017,0.0277,0.0304,0.0413,0.0432,0.0457,0.057,0.0673,0.096,0.0949,0.0992,0.1031,0.1324,0.1323,0.1322,0.1196,0.1183,0.1173,0,0,0,0,0,0,-0.0206,-0.0066,-0.0019,0.006,0.0155,0.0303,0.0337,0.0395,0.0502,0.0511,0.0674,0.0719,0.0821,0.0937,0.0921,0.1112,0.1158,0.1165,0.1047,0.1037,0.1027,0.103,0.1056,0,0,0,0,0,-0.0221,-0.0173,-0.0032,0.0025,0.0068,0.0191,0.0244,0.0315,0.0428,0.0475,0.06,0.0735,0.0853,0.0948,0.1058,0.1184,0.1249,0.1232,0.1223,0.1214,0.1243,0.1346,0.1349,0.1319,0.1319,0.1319,0,0,-0.0239,-0.0158,-0.0128,0.0006,0.0087,0.0166,0.0226,0.03,0.0369,0.0502,0.0611,0.0693,0.0865,0.0983,0.1045,0.1093,0.1239,0.1213,0.1205,0.1239,0.1345,0.1349,0.1351,0.1318,0.1318,0.1318,0,0,-0.0257,-0.0182,-0.0147,-0.0072,0.004,0.0126,0.0135,0.0267,0.0328,0.0433,0.0528,0.0619,0.0818,0.0943,0.1036,0.1047,0.1154,0.1078,0.1085,0.1182,0.1186,0.1191,0.1194,0.12,0.1112,0.1111,0.1111,0,-0.0288,-0.0203,-0.0124,-0.0064,-0.0001,0.0099,0.0159,0.0243,0.039,0.0447,0.0451,0.0694,0.081,0.0985,0.0981,0.1032,0.1071,0.1112,0.117,0.1177,0.1184,0.1187,0.1196,0.1105,0.1105,0.1106,0.1107,0,-0.0263,-0.0197,-0.0175,-0.0061,0.001,0.007,0.0196,0.0259,0.032,0.0413,0.0537,0.0666,0.0826,0.0859,0.0937,0.1055,0.1051,0.1109,0.1194,0.1179,0.1182,0.1193,0.1095,0.1098,0.11,0.1101,0,0,-0.0319,-0.0185,-0.0175,-0.0121,0.0016,0.0082,0.0178,0.0314,0.0388,0.0487,0.0591,0.0742,0.0785,0.0889,0.0978,0.1072,0.1103,0.1112,0.112,0.1105,0.1251,0.1091,0.1088,0.1174,0.1178,0.118,0.1202,0,-0.0318,-0.0232,-0.0153,-0.0058,0.0003,0.0117,0.0205,0.033,0.0429,0.0545,0.0668,0.0786,0.0812,0.0872,0.0964,0.1086,0.1142,0.1088,0.1281,0.1285,0.114,0.1101,0.1016,0.1018,0.1214,0.1216,0.1217,0,-0.0308,-0.0249,-0.0176,-0.0041,-0.0004,0.0057,0.0214,0.0313,0.0491,0.0565,0.0691,0.0787,0.0936,0.0942,0.1133,0.1097,0.1157,0.1228,0.1233,0.1157,0.115,0.1086,0.1033,0.1238,0.1236,0.1234,0.1233,0,-0.0383,-0.0255,-0.0207,-0.016,-0.0002,0.0043,0.0133,0.0301,0.04,0.0573,0.0649,0.0824,0.0917,0.1042,0.1141,0.1161,0.131,0.1369,0.1269,0.1256,0.1263,0.1244,0.1486,0.1486,0.1486,0.1486,0.1486,0,-0.0404,-0.0357,-0.0248,-0.0219,-0.0149,-0.002,0.0074,0.0192,0.0364,0.0482,0.0639,0.0729,0.0952,0.1058,0.1145,0.1199,0.1308,0.1256,0.1267,0.1198,0.1174,0.1459,0.1455,0.1487,0.1487,0.1487,0.1487,0,-0.0486,-0.0413,-0.035,-0.0224,-0.0188,-0.0142,0.002,0.0109,0.0264,0.042,0.0475,0.0686,0.0804,0.0958,0.115,0.1181,0.1267,0.1252,0.1089,0.1079,0.1146,0.1135,0.1181,0.1176,0.1171,0.1168,0.1165,0,-0.0517,-0.05,-0.0396,-0.0359,-0.0312,-0.0227,-0.0153,0.0026,0.0133,0.0369,0.044,0.0594,0.0631,0.0787,0.0913,0.0998,0.1124,0.0977,0.1013,0.1116,0.1123,0.1119,0.1115,0.0947,0.0943,0.0939,0.0936,0,-0.0578,-0.0556,-0.0508,-0.045,-0.0391,-0.0291,-0.0177,-0.0118,0.0108,0.0187,0.0292,0.0313,0.0464,0.0522,0.0633,0.0688,0.0959,0.0897,0.1118,0.1004,0.0889,0.0897,0.0903,0.0903,0.0906,0.0908,0.091,0.0911,-0.0636,-0.0628,-0.0577,-0.0515,-0.0439,-0.0346,-0.0291,-0.0191,-0.0107,0.0015,0.0059,0.0071,0.0229,0.0301,0.0428,0.0617,0.0658,0.0738,0.0755,0.0774,0.0709,0.0591,0.0532,0.0533,0.0534,0.0535,0.0535,0,-0.0686,-0.0659,-0.0623,-0.0542,-0.0479,-0.0399,-0.0276,-0.0252,-0.0227,-0.0171,-0.0184,-0.0136,-0.0097,0.0145,0.0359,0.0446,0.0513,0.0503,0.0612,0.0638,0.0664,0.0602,0.0392,0.0393,0.0393,0.0394,0,0,-0.0706,-0.0702,-0.0677,-0.0597,-0.0518,-0.0417,-0.0353,-0.0367,-0.0324,-0.0368,-0.0345,-0.0403,-0.0124,0.0009,0.0165,0.032,0.0459,0.0315,0.0401,0.0532,0.0558,0.0746,0.0669,0,0,0,0,0]}],[{"header":{"parameterUnit":"m.s-1","parameterCategory":2,"la1":30.2991,"la2":30.254,"lo1":-89.0895,"lo2":-89.0444,"dy":0.0017,"dx":0.0017,"nx":28,"ny":28,"refTime":"2023-06-28T21:00:00:Z","depth":"4","parameterNumber":2,"parameterNumberName":"U-component_of_CURRENTS"},"data":[0,0,0,0,0,0,0,0,0,0,0,0,0,0,0,0,0,0,0,0,0,0,0,0,0,0,0,0,0,0,0,0,0,0,0,0,0,0,0,0,0,0,0,0,0,0,0,0,0,0,0,0,0,0,0,0,0,0,-0.0846,-0.0845,0,-0.0859,-0.086,-0.0861,-0.0899,-0.0899,-0.0898,-0.0898,-0.1024,-0.1028,-0.1032,0,0,0,0,0,0,0,0,0,0,0,0,0,-0.0847,-0.0848,-0.0846,-0.0845,-0.0843,-0.0858,-0.086,-0.0862,-0.0899,-0.0899,-0.0898,-0.0897,-0.1023,-0.1027,-0.1032,0,0,0,0,0,0,0,0,0,0,0,0,0,-0.0865,-0.0848,-0.0846,-0.0853,-0.0853,-0.0858,-0.086,-0.0862,-0.0899,-0.0899,-0.0898,-0.0897,-0.1021,-0.1027,-0.1033,-0.1083,0,0,-0.105,-0.1053,0,0,0,0,0,0,0,0,-0.0864,-0.0867,-0.0853,-0.0853,-0.0852,-0.0864,-0.0906,-0.0936,-0.09,-0.0897,-0.0898,-0.0897,-0.0972,-0.0982,-0.1005,-0.1089,-0.1094,-0.1051,-0.1054,-0.1057,-0.1058,0,0,0,0,0,0,0,-0.0863,-0.0867,-0.0866,-0.0852,-0.0851,-0.0852,-0.0856,-0.0912,-0.0952,-0.0897,-0.0896,-0.0875,-0.0974,-0.0999,-0.1008,-0.1096,-0.105,-0.1056,-0.1059,-0.1061,-0.1228,-0.1229,0,0,0,0,0,0,-0.0834,-0.0866,-0.0865,-0.0864,-0.084,-0.0852,-0.0857,-0.0873,-0.0949,-0.0955,-0.0876,-0.0876,-0.099,-0.1001,-0.1013,-0.1111,-0.1056,-0.1062,-0.1065,-0.1227,-0.1228,-0.1229,0,0,0,0,0,0,-0.0835,-0.0835,-0.0864,-0.0851,-0.0853,-0.0851,-0.087,-0.0873,-0.0916,-0.0928,-0.0939,-0.0915,-0.099,-0.1005,-0.1057,-0.1114,-0.1064,-0.107,-0.1226,-0.1227,-0.1228,-0.1285,0,0,0,0,0,0,-0.0835,-0.0837,-0.0855,-0.0851,-0.0852,-0.0879,-0.0869,-0.0873,-0.0895,-0.0898,-0.0966,-0.0975,-0.099,-0.1048,-0.1062,-0.1121,-0.1074,-0.1224,-0.1226,-0.1228,-0.1281,-0.1288,-0.1293,0,0,0,0,0,-0.0836,-0.0839,-0.0857,-0.0856,-0.0874,-0.0879,-0.0883,-0.0887,-0.0898,-0.0925,-0.0951,-0.0974,-0.107,-0.1053,-0.107,-0.1132,-0.1223,-0.1226,-0.1228,-0.1279,-0.1286,-0.1293,0,0,0,0,0,0,-0.0835,-0.0842,-0.0861,-0.0866,-0.0881,-0.088,-0.0886,-0.0905,-0.0952,-0.0957,-0.0988,-0.1,-0.1068,-0.1085,-0.1065,-0.118,-0.1152,-0.1157,-0.1185,-0.1192,-0.1198,-0.1165,-0.1079,0,0,0,0,0,-0.0846,-0.0861,-0.087,-0.0875,-0.0885,-0.0903,-0.091,-0.092,-0.094,-0.0962,-0.1,-0.1041,-0.109,-0.1125,-0.1162,-0.1234,-0.1213,-0.1281,-0.1287,-0.1292,-0.1273,-0.1282,-0.1287,-0.1236,-0.1236,-0.1236,0,0,-0.0839,-0.0845,-0.0851,-0.0877,-0.0891,-0.0905,-0.0911,-0.0923,-0.0944,-0.0969,-0.1023,-0.1067,-0.1109,-0.1176,-0.121,-0.1201,-0.1296,-0.1295,-0.1299,-0.1277,-0.1285,-0.1289,-0.1294,-0.1238,-0.1237,-0.1237,0,0,-0.0815,-0.0852,-0.0858,-0.088,-0.0895,-0.091,-0.0922,-0.0948,-0.0978,-0.1025,-0.1051,-0.1113,-0.1187,-0.1228,-0.1259,-0.132,-0.1322,-0.1353,-0.1372,-0.1382,-0.1386,-0.1389,-0.1371,-0.1372,-0.1363,-0.1363,-0.1364,0,-0.0813,-0.0827,-0.0858,-0.0872,-0.0877,-0.0917,-0.0927,-0.0966,-0.1006,-0.1031,-0.1039,-0.1144,-0.1205,-0.1279,-0.1312,-0.1338,-0.1327,-0.1348,-0.1389,-0.1392,-0.1394,-0.1375,-0.1375,-0.1366,-0.1366,-0.1366,-0.1366,0,-0.0795,-0.0818,-0.082,-0.0861,-0.0879,-0.0893,-0.0933,-0.0973,-0.1012,-0.1048,-0.1123,-0.1186,-0.1248,-0.1298,-0.1336,-0.1405,-0.1386,-0.1391,-0.137,-0.1402,-0.138,-0.1379,-0.1371,-0.137,-0.1369,-0.1368,0,0,-0.0765,-0.0804,-0.0807,-0.0828,-0.0878,-0.0888,-0.0929,-0.0979,-0.1,-0.1073,-0.111,-0.1228,-0.1273,-0.1309,-0.1375,-0.1403,-0.1446,-0.1419,-0.1418,-0.1397,-0.1446,-0.1322,-0.1309,-0.1463,-0.1464,-0.1464,-0.1425,0,-0.0752,-0.076,-0.0787,-0.0811,-0.0826,-0.0877,-0.0911,-0.0964,-0.1005,-0.1058,-0.1149,-0.121,-0.1277,-0.1321,-0.137,-0.1415,-0.1446,-0.1453,-0.1419,-0.1417,-0.1301,-0.1305,-0.1465,-0.1424,-0.1424,-0.1424,-0.1424,0,-0.0733,-0.0743,-0.0751,-0.0796,-0.0808,-0.0833,-0.0877,-0.0917,-0.1,-0.1028,-0.11,-0.1168,-0.1261,-0.1301,-0.137,-0.1372,-0.1423,-0.1444,-0.1443,-0.1299,-0.1291,-0.1385,-0.1422,-0.1422,-0.1423,-0.1423,-0.1423,0,-0.069,-0.0723,-0.0725,-0.0742,-0.0794,-0.0815,-0.0858,-0.0917,-0.0945,-0.1016,-0.1028,-0.1127,-0.119,-0.124,-0.1311,-0.1353,-0.1338,-0.1398,-0.1323,-0.1314,-0.1415,-0.1412,-0.1441,-0.1441,-0.1441,-0.1441,-0.1441,0,-0.0665,-0.0675,-0.0711,-0.0718,-0.0736,-0.0793,-0.0814,-0.0853,-0.0912,-0.0932,-0.103,-0.1031,-0.1183,-0.1208,-0.1268,-0.1253,-0.1303,-0.1303,-0.1292,-0.144,-0.144,-0.1414,-0.1411,-0.144,-0.144,-0.144,-0.144,0,-0.0627,-0.0643,-0.066,-0.0706,-0.0717,-0.0742,-0.0795,-0.0809,-0.0853,-0.0872,-0.0899,-0.0986,-0.1002,-0.1083,-0.1154,-0.1183,-0.1178,-0.1171,-0.1274,-0.1273,-0.117,-0.1171,-0.1098,-0.1093,-0.1089,-0.1085,-0.1082,0,-0.061,-0.0608,-0.0641,-0.0644,-0.067,-0.0702,-0.072,-0.0777,-0.0779,-0.0807,-0.0811,-0.086,-0.0909,-0.0873,-0.0976,-0.1015,-0.1051,-0.1043,-0.1168,-0.1136,-0.1133,-0.1141,-0.1147,-0.1076,-0.1075,-0.1074,-0.1073,0,-0.0583,-0.0595,-0.0605,-0.0607,-0.0621,-0.0624,-0.0655,-0.0641,-0.069,-0.0731,-0.0698,-0.0728,-0.0746,-0.0809,-0.0831,-0.0873,-0.1034,-0.1003,-0.1015,-0.1133,-0.1109,-0.1112,-0.1123,-0.1059,-0.1061,-0.1062,-0.1063,0,-0.0566,-0.0563,-0.0568,-0.0569,-0.0567,-0.0541,-0.0567,-0.0563,-0.0573,-0.0616,-0.0587,-0.0628,-0.0701,-0.0729,-0.0723,-0.0755,-0.0822,-0.0861,-0.0883,-0.0899,-0.0861,-0.0802,-0.0626,0,0,0,0,0,-0.0546,-0.0529,-0.0528,-0.0505,-0.05,-0.0494,-0.0512,-0.0538,-0.0567,-0.0526,-0.0561,-0.0558,-0.0589,-0.0611,-0.0624,-0.0686,-0.0837,-0.0701,-0.0894,-0.098,-0.0997,-0.0974,0,0,0,0,0,0,-0.0523,-0.0519,-0.0511,-0.0445,-0.0414,-0.0394,-0.0399,-0.0429,-0.0411,-0.0454,-0.0471,-0.0525,-0.0565,-0.0566,-0.0606,-0.0621,-0.0738,-0.0742,-0.0741,-0.0971,-0.0986,-0.0999,-0.0982,0,0,0,0,0]},{"header":{"parameterUnit":"m.s-1","parameterCategory":2,"la1":30.2991,"la2":30.254,"lo1":-89.0895,"lo2":-89.0444,"dy":0.0017,"dx":0.0017,"nx":28,"ny":28,"refTime":"2023-06-28T21:00:00:Z","depth":"4","parameterNumber":3,"parameterNumberName":"V-component_of_CURRENTS"},"data":[0,0,0,0,0,0,0,0,0,0,0,0,0,0,0,0,0,0,0,0,0,0,0,0,0,0,0,0,0,0,0,0,0,0,0,0,0,0,0,0,0,0,0,0,0,0,0,0,0,0,0,0,0,0,0,0,0,0,-0.0576,-0.0576,0,-0.0608,-0.0608,-0.0609,-0.0619,-0.0619,-0.0618,-0.0618,-0.0619,-0.062,-0.062,0,0,0,0,0,0,0,0,0,0,0,0,0,-0.0545,-0.0545,-0.0576,-0.0576,-0.0577,-0.0608,-0.0608,-0.0609,-0.0619,-0.0619,-0.0618,-0.0618,-0.0619,-0.062,-0.062,0,0,0,0,0,0,0,0,0,0,0,0,0,-0.0567,-0.0546,-0.0576,-0.0585,-0.0586,-0.0608,-0.0608,-0.0609,-0.0619,-0.0619,-0.0618,-0.0618,-0.0619,-0.062,-0.062,-0.063,0,0,-0.0621,-0.0621,0,0,0,0,0,0,0,0,-0.0565,-0.0568,-0.0583,-0.0584,-0.0585,-0.0608,-0.0598,-0.0614,-0.0619,-0.0607,-0.0618,-0.0618,-0.0612,-0.0613,-0.0622,-0.063,-0.063,-0.0621,-0.0621,-0.0622,-0.0622,0,0,0,0,0,0,0,-0.0564,-0.0567,-0.059,-0.0583,-0.0585,-0.0594,-0.0597,-0.0601,-0.0612,-0.0608,-0.0609,-0.0611,-0.0613,-0.0622,-0.0622,-0.063,-0.0621,-0.0621,-0.0622,-0.0622,-0.0655,-0.0655,0,0,0,0,0,0,-0.0557,-0.0565,-0.0589,-0.0591,-0.0573,-0.0595,-0.0598,-0.0602,-0.0612,-0.0614,-0.0611,-0.0611,-0.0621,-0.0622,-0.0622,-0.0654,-0.0622,-0.0622,-0.0622,-0.0654,-0.0655,-0.0656,0,0,0,0,0,0,-0.0556,-0.0559,-0.0587,-0.0578,-0.0582,-0.0595,-0.06,-0.0603,-0.0625,-0.0615,-0.0615,-0.0632,-0.0621,-0.0621,-0.0637,-0.0653,-0.0622,-0.0622,-0.0653,-0.0654,-0.0655,-0.0706,0,0,0,0,0,0,-0.0555,-0.0559,-0.0571,-0.0577,-0.0582,-0.0607,-0.0601,-0.0604,-0.0625,-0.0626,-0.0632,-0.0631,-0.0621,-0.0636,-0.0637,-0.0653,-0.0623,-0.0653,-0.0654,-0.0655,-0.0703,-0.0708,-0.0712,0,0,0,0,0,-0.0554,-0.0562,-0.0572,-0.0575,-0.0595,-0.0608,-0.0612,-0.0621,-0.0626,-0.0639,-0.0644,-0.0632,-0.0644,-0.0637,-0.0638,-0.0655,-0.0652,-0.0653,-0.0655,-0.0701,-0.0707,-0.0712,0,0,0,0,0,0,-0.0553,-0.0564,-0.0574,-0.0586,-0.0602,-0.0609,-0.0619,-0.0632,-0.0649,-0.0646,-0.0645,-0.0644,-0.0665,-0.0653,-0.0645,-0.0667,-0.0644,-0.0646,-0.0679,-0.0685,-0.0689,-0.0699,-0.0623,0,0,0,0,0,-0.056,-0.0572,-0.0584,-0.0597,-0.0601,-0.0617,-0.0628,-0.0633,-0.0643,-0.0651,-0.0664,-0.0666,-0.0671,-0.0672,-0.0676,-0.0689,-0.0667,-0.0698,-0.0703,-0.0707,-0.0715,-0.0719,-0.0725,-0.066,-0.066,-0.066,0,0,-0.0567,-0.0572,-0.0582,-0.0599,-0.0608,-0.0623,-0.0623,-0.0635,-0.0657,-0.0647,-0.0686,-0.0689,-0.068,-0.0696,-0.0703,-0.0687,-0.0704,-0.0709,-0.0712,-0.0718,-0.0721,-0.0728,-0.0733,-0.0661,-0.0661,-0.0661,0,0,-0.0574,-0.0586,-0.0596,-0.0609,-0.0621,-0.0631,-0.064,-0.0661,-0.0678,-0.0709,-0.0708,-0.0734,-0.0737,-0.0747,-0.0746,-0.0781,-0.0735,-0.0766,-0.0794,-0.0799,-0.0804,-0.0809,-0.075,-0.0749,-0.0763,-0.0763,-0.0763,0,-0.0582,-0.0598,-0.0603,-0.0613,-0.063,-0.0638,-0.0658,-0.0674,-0.0706,-0.0725,-0.0723,-0.0761,-0.0768,-0.0788,-0.08,-0.0795,-0.0757,-0.0774,-0.0805,-0.081,-0.0814,-0.0753,-0.0751,-0.0765,-0.0765,-0.0765,-0.0765,0,-0.0591,-0.0613,-0.0616,-0.0638,-0.0657,-0.0671,-0.0691,-0.0717,-0.0741,-0.0762,-0.08,-0.0815,-0.0836,-0.0841,-0.0832,-0.0861,-0.0808,-0.0816,-0.0793,-0.0824,-0.0756,-0.0754,-0.0769,-0.0768,-0.0767,-0.0767,0,0,-0.0586,-0.0619,-0.0622,-0.0645,-0.0672,-0.0686,-0.072,-0.0757,-0.0782,-0.0815,-0.0858,-0.0885,-0.0895,-0.0896,-0.0893,-0.09,-0.0897,-0.0866,-0.0865,-0.0808,-0.0845,-0.0742,-0.0728,-0.0901,-0.0902,-0.0902,-0.0772,0,-0.0596,-0.0623,-0.0643,-0.0684,-0.0703,-0.0728,-0.0767,-0.0798,-0.0823,-0.0865,-0.0885,-0.0922,-0.0911,-0.0926,-0.0933,-0.0928,-0.0898,-0.0928,-0.0823,-0.0819,-0.0726,-0.0727,-0.0905,-0.077,-0.077,-0.0769,-0.0769,0,-0.0602,-0.0621,-0.0662,-0.0717,-0.0728,-0.0761,-0.0815,-0.0849,-0.0893,-0.0914,-0.0942,-0.0953,-0.0987,-0.0972,-0.0948,-0.0958,-0.0898,-0.0875,-0.0869,-0.0759,-0.0713,-0.0742,-0.0764,-0.0764,-0.0765,-0.0765,-0.0765,0,-0.0594,-0.0638,-0.0675,-0.0692,-0.0749,-0.0784,-0.0823,-0.087,-0.0897,-0.0951,-0.0964,-0.0996,-0.1016,-0.0981,-0.0926,-0.0937,-0.0867,-0.0881,-0.071,-0.0699,-0.081,-0.0807,-0.0832,-0.0833,-0.0833,-0.0833,-0.0834,0,-0.0598,-0.0627,-0.0677,-0.0696,-0.0749,-0.0793,-0.0851,-0.0886,-0.0934,-0.0956,-0.0991,-0.0992,-0.1022,-0.0979,-0.0922,-0.0794,-0.0855,-0.0705,-0.067,-0.0826,-0.0827,-0.0804,-0.0803,-0.0828,-0.0829,-0.083,-0.0831,0,-0.0588,-0.0619,-0.0662,-0.0725,-0.0749,-0.0789,-0.0864,-0.0894,-0.0938,-0.0962,-0.0981,-0.1001,-0.0947,-0.0907,-0.085,-0.0775,-0.0683,-0.0603,-0.0723,-0.0699,-0.0504,-0.0507,-0.042,-0.0415,-0.0412,-0.0408,-0.0406,0,-0.0588,-0.0609,-0.0674,-0.0701,-0.0736,-0.0797,-0.0839,-0.0897,-0.0912,-0.094,-0.0937,-0.0913,-0.0901,-0.0734,-0.0703,-0.0558,-0.053,-0.0463,-0.0534,-0.0492,-0.0467,-0.0476,-0.0483,-0.04,-0.0399,-0.0398,-0.0397,0,-0.0584,-0.061,-0.0642,-0.0694,-0.0742,-0.0789,-0.084,-0.0842,-0.0889,-0.0919,-0.088,-0.0822,-0.0739,-0.0678,-0.0553,-0.0456,-0.0524,-0.0424,-0.0432,-0.0498,-0.0467,-0.0448,-0.046,-0.0384,-0.0386,-0.0387,-0.0387,0,-0.0579,-0.0597,-0.0639,-0.0684,-0.0737,-0.0767,-0.08,-0.0808,-0.0826,-0.0839,-0.0816,-0.0766,-0.0766,-0.0614,-0.0503,-0.0403,-0.0385,-0.0363,-0.0374,-0.0388,-0.043,-0.0389,-0.0244,0,0,0,0,0,-0.0567,-0.0583,-0.0625,-0.0672,-0.0724,-0.0755,-0.0791,-0.0814,-0.0832,-0.079,-0.0803,-0.0717,-0.0578,-0.0541,-0.0418,-0.0426,-0.0365,-0.0274,-0.0345,-0.0311,-0.0326,-0.0373,0,0,0,0,0,0,-0.0557,-0.0589,-0.0611,-0.0652,-0.0683,-0.0736,-0.0758,-0.0776,-0.0745,-0.0756,-0.069,-0.0668,-0.0543,-0.0654,-0.0415,-0.0387,-0.0406,-0.0224,-0.022,-0.0302,-0.0316,-0.0328,-0.0382,0,0,0,0,0]}]]